Tracking 35334 objects as of 13-Sep-2026
HD Live streaming from Space Station
objects crossing your sky now

STARLINK-34129

Track STARLINK-34129 now!
10-day predictions
STARLINK-34129 is classified as:


NORAD ID: 64138
Int'l Code: 2025-111R
Launch date: May 24, 2025
Source: United States (US)
Launch site: AIR FORCE EASTERN TEST RANGE (AFETR)
Your satellite tracking list
Your tracking list is empty




NASA's NSSDC Master Catalog

Two Line Element Set (TLE):
1 64138U 25111R   26255.97434740  .00014040  00000-0  51857-3 0  9998
2 64138  43.0030 100.3985 0001771 269.4648  90.6001 15.27591796 74150
Source of the keplerian elements: AFSPC